• In Netherlands
  • List of Countries
  • For 7 days
  • Water Temperature
  • Satellite Maps
  • Weather Map
  • Weather Widgets
  • user-avatar
    Login

    Hourly Weather Yelsk

    Today, 26 September, Wednesday

    Time Temperature Precipitation Wind Pressure Humidity
    00:00 +4°C° 0 mm 4 mps 755 mmHg 79%
    01:00 +3°C° 0 mm 4 mps 756 mmHg 80%
    02:00 +3°C° 0 mm 3 mps 756 mmHg 86%
    03:00 +2°C° 0 mm 3 mps 757 mmHg 86%
    04:00 +2°C° 0 mm 3 mps 757 mmHg 85%
    05:00 +2°C° 0 mm 3 mps 757 mmHg 85%
    06:00 +2°C° 0 mm 3 mps 758 mmHg 82%
    07:00 +3°C° 0 mm 3 mps 758 mmHg 78%
    08:00 +4°C° 0 mm 3 mps 759 mmHg 75%
    09:00 +6°C° 0 mm 4 mps 759 mmHg 66%
    10:00 +8°C° 0 mm 4 mps 759 mmHg 58%
    11:00 +11°C° 0 mm 4 mps 759 mmHg 49%
    12:00 +12°C° 0 mm 4 mps 759 mmHg 46%
    13:00 +12°C° 0 mm 4 mps 758 mmHg 43%
    14:00 +13°C° 0 mm 4 mps 758 mmHg 40%
    15:00 +12°C° 0 mm 4 mps 758 mmHg 43%
    16:00 +12°C° 0 mm 3 mps 757 mmHg 46%
    17:00 +11°C° 0 mm 3 mps 757 mmHg 50%
    18:00 +10°C° 0 mm 3 mps 757 mmHg 52%
    19:00 +9°C° 0 mm 3 mps 756 mmHg 54%
    20:00 +7°C° 0 mm 4 mps 756 mmHg 56%
    21:00 +8°C° 0 mm 4 mps 756 mmHg 56%
    22:00 +8°C° 0 mm 5 mps 755 mmHg 56%
    23:00 +8°C° 0 mm 5 mps 755 mmHg 56%

    Tomorrow, 27 September, Thursday

    Time Temperature Precipitation Wind Pressure Humidity
    00:00 +8°C° 0.1 mm 6 mps 754 mmHg 61%
    01:00 +7°C° 0.1 mm 6 mps 754 mmHg 66%
    02:00 +7°C° 0.1 mm 6 mps 753 mmHg 70%
    03:00 +6°C° 0.1 mm 7 mps 752 mmHg 73%
    04:00 +6°C° 0.1 mm 7 mps 752 mmHg 76%
    05:00 +6°C° 0.1 mm 7 mps 751 mmHg 79%
    06:00 +6°C° 0.2 mm 7 mps 751 mmHg 80%
    07:00 +6°C° 0.2 mm 7 mps 750 mmHg 81%
    08:00 +8°C° 0.2 mm 7 mps 750 mmHg 82%
    09:00 +8°C° 0.1 mm 7 mps 750 mmHg 83%
    10:00 +8°C° 0.1 mm 6 mps 750 mmHg 83%
    11:00 +9°C° 0.1 mm 6 mps 750 mmHg 84%
    12:00 +9°C° 0 mm 6 mps 750 mmHg 82%
    13:00 +10°C° 0 mm 6 mps 750 mmHg 81%
    14:00 +11°C° 0 mm 6 mps 750 mmHg 80%
    15:00 +11°C° 0 mm 6 mps 750 mmHg 80%
    16:00 +12°C° 0 mm 5 mps 750 mmHg 81%
    17:00 +12°C° 0 mm 5 mps 750 mmHg 81%
    18:00 +12°C° 0 mm 5 mps 750 mmHg 84%
    19:00 +12°C° 0 mm 4 mps 750 mmHg 87%
    20:00 +11°C° 0 mm 4 mps 750 mmHg 90%
    21:00 +11°C° 0 mm 4 mps 750 mmHg 92%
    22:00 +11°C° 0 mm 3 mps 750 mmHg 94%
    23:00 +11°C° 0 mm 3 mps 750 mmHg 96%

    Day after tomorrow, 28 September, Friday

    Time Temperature Precipitation Wind Pressure Humidity
    00:00 +10°C° 0 mm 3 mps 750 mmHg 96%
    01:00 +10°C° 0 mm 3 mps 750 mmHg 96%
    02:00 +10°C° 0 mm 3 mps 749 mmHg 97%
    03:00 +10°C° 0 mm 3 mps 749 mmHg 97%
    04:00 +10°C° 0 mm 4 mps 748 mmHg 97%
    05:00 +10°C° 0 mm 4 mps 748 mmHg 96%
    06:00 +11°C° 0 mm 4 mps 748 mmHg 92%
    07:00 +12°C° 0 mm 5 mps 747 mmHg 88%
    08:00 +13°C° 0 mm 6 mps 747 mmHg 83%
    09:00 +14°C° 0 mm 6 mps 747 mmHg 77%
    10:00 +16°C° 0 mm 6 mps 746 mmHg 72%
    11:00 +18°C° 0 mm 7 mps 746 mmHg 66%
    12:00 +18°C° 0 mm 7 mps 746 mmHg 65%
    13:00 +19°C° 0 mm 6 mps 745 mmHg 64%
    14:00 +19°C° 0 mm 6 mps 745 mmHg 63%
    15:00 +17°C° 0 mm 5 mps 745 mmHg 65%
    16:00 +17°C° 0 mm 5 mps 745 mmHg 67%
    17:00 +17°C° 0 mm 4 mps 745 mmHg 69%
    18:00 +14°C° 0 mm 3 mps 746 mmHg 73%
    19:00 +13°C° 0 mm 3 mps 746 mmHg 77%
    20:00 +13°C° 0 mm 2 mps 746 mmHg 81%
    21:00 +12°C° 0 mm 2 mps 747 mmHg 81%
    22:00 +12°C° 0 mm 2 mps 747 mmHg 82%
    23:00 +12°C° 0 mm 1 mps 747 mmHg 82%

    29 September, Saturday

    Time Temperature Precipitation Wind Pressure Humidity
    00:00 +11°C° 0 mm 1 mps 747 mmHg 84%
    01:00 +11°C° 0 mm 1 mps 748 mmHg 85%
    02:00 +10°C° 0 mm 1 mps 748 mmHg 87%
    03:00 +10°C° 0 mm 1 mps 748 mmHg 87%
    04:00 +10°C° 0 mm 1 mps 748 mmHg 87%
    05:00 +10°C° 0 mm 1 mps 748 mmHg 87%
    06:00 +10°C° 0 mm 1 mps 748 mmHg 84%
    07:00 +10°C° 0 mm 1 mps 749 mmHg 81%
    08:00 +10°C° 0 mm 2 mps 749 mmHg 79%
    09:00 +12°C° 0.1 mm 2 mps 749 mmHg 74%
    10:00 +13°C° 0.1 mm 2 mps 750 mmHg 69%
    11:00 +12°C° 0.1 mm 3 mps 750 mmHg 65%
    12:00 +12°C° 0.3 mm 3 mps 750 mmHg 65%
    13:00 +12°C° 0.3 mm 3 mps 750 mmHg 66%
    14:00 +12°C° 0.3 mm 4 mps 750 mmHg 66%
    15:00 +12°C° 0.1 mm 4 mps 750 mmHg 68%
    16:00 +11°C° 0.1 mm 3 mps 751 mmHg 69%
    17:00 +11°C° 0.1 mm 3 mps 751 mmHg 71%
    18:00 +9°C° 0 mm 3 mps 752 mmHg 75%
    19:00 +8°C° 0 mm 3 mps 752 mmHg 78%
    20:00 +7°C° 0 mm 2 mps 753 mmHg 82%
    21:00 +6°C° 0 mm 2 mps 753 mmHg 83%
    22:00 +6°C° 0 mm 2 mps 754 mmHg 84%
    23:00 +5°C° 0 mm 2 mps 754 mmHg 86%

    30 September, Sunday

    Time Temperature Precipitation Wind Pressure Humidity
    00:00 +5°C° 0 mm 2 mps 754 mmHg 86%
    01:00 +4°C° 0 mm 2 mps 755 mmHg 86%
    02:00 +4°C° 0 mm 2 mps 755 mmHg 86%
    03:00 +4°C° 0 mm 2 mps 755 mmHg 86%
    04:00 +4°C° 0 mm 2 mps 755 mmHg 87%
    05:00 +4°C° 0 mm 1 mps 755 mmHg 87%
    06:00 +5°C° 0 mm 1 mps 756 mmHg 83%
    07:00 +6°C° 0 mm 1 mps 756 mmHg 78%
    08:00 +7°C° 0 mm 1 mps 756 mmHg 74%
    09:00 +9°C° 0 mm 1 mps 756 mmHg 66%
    10:00 +11°C° 0 mm 1 mps 756 mmHg 58%
    11:00 +13°C° 0 mm 1 mps 756 mmHg 50%
    12:00 +14°C° 0 mm 1 mps 756 mmHg 46%
    13:00 +14°C° 0 mm 1 mps 756 mmHg 43%
    14:00 +15°C° 0 mm 1 mps 755 mmHg 40%
    15:00 +14°C° 0 mm 1 mps 755 mmHg 43%
    16:00 +12°C° 0 mm 0 mps 755 mmHg 47%
    17:00 +11°C° 0 mm 0 mps 755 mmHg 51%
    18:00 +10°C° 0 mm 0 mps 755 mmHg 54%
    19:00 +9°C° 0 mm 0 mps 755 mmHg 56%
    20:00 +8°C° 0 mm 1 mps 755 mmHg 59%
    21:00 +8°C° 0 mm 1 mps 755 mmHg 60%
    22:00 +7°C° 0 mm 1 mps 754 mmHg 62%
    23:00 +7°C° 0 mm 1 mps 754 mmHg 64%

    1 October, Monday

    Time Temperature Precipitation Wind Pressure Humidity
    00:00 +7°C° 0 mm 1 mps 754 mmHg 65%
    01:00 +6°C° 0 mm 1 mps 754 mmHg 67%
    02:00 +6°C° 0 mm 1 mps 754 mmHg 68%
    03:00 +6°C° 0 mm 1 mps 753 mmHg 69%
    04:00 +5°C° 0 mm 1 mps 753 mmHg 70%
    05:00 +5°C° 0 mm 1 mps 753 mmHg 72%
    06:00 +5°C° 0 mm 2 mps 753 mmHg 69%
    07:00 +6°C° 0 mm 2 mps 752 mmHg 67%
    08:00 +7°C° 0 mm 2 mps 752 mmHg 64%
    09:00 +9°C° 0 mm 3 mps 752 mmHg 58%
    10:00 +11°C° 0 mm 3 mps 752 mmHg 51%
    11:00 +13°C° 0 mm 4 mps 751 mmHg 45%
    12:00 +14°C° 0 mm 4 mps 751 mmHg 43%
    13:00 +14°C° 0 mm 4 mps 750 mmHg 42%
    14:00 +15°C° 0 mm 4 mps 750 mmHg 40%
    15:00 +14°C° 0 mm 3 mps 749 mmHg 45%
    16:00 +13°C° 0 mm 3 mps 749 mmHg 49%
    17:00 +13°C° 0 mm 2 mps 748 mmHg 54%
    18:00 +12°C° 0 mm 2 mps 748 mmHg 58%
    19:00 +9°C° 0 mm 2 mps 748 mmHg 63%
    20:00 +8°C° 0 mm 2 mps 748 mmHg 68%
    21:00 +7°C° 0 mm 2 mps 748 mmHg 69%
    22:00 +7°C° 0 mm 2 mps 748 mmHg 70%
    23:00 +6°C° 0 mm 2 mps 748 mmHg 71%
    Show more